Flag for Canada Weather past 2 weeks in Labrador City, Newfoundland and Labrador, Canada

Now
45 °F

Scattered clouds.


Feels Like: 42 °F
Forecast: 21 / 42 °F
Wind: 5 mph from North

Location: Wabush Lake

Current Time: Oct 24, 2014 at 1:58:37 PM

Latest Report: Oct 24, 2014 at 1:00 PM


Visibility: 15 mi

Pressure: 30.07 "Hg

Humidity: 49%

Dew point: 27 °F

Location of Labrador CityLocation

Historic Weather in Labrador City — Graph

°F

Labrador City temperature yesterday

Maximum temperature yesterday: 50 °F (at 4:00 PM)
Minimum temperature yesterday: 21 °F (at 5:00 AM)
Average temperature yesterday: 33 °F

Past Weeks' High & Low Weather Summary

 TemperatureHumidityPressure
High54 °F (Oct 13, 4:00 PM)100% (Oct 10, 4:45 AM)30.54 "Hg (Oct 10, 4:45 AM)
Low19 °F (Oct 22, 2:00 AM)25% (Oct 23, 4:00 PM)29.14 "Hg (Oct 17, 11:56 PM)
Average37 °F84%29.85 "Hg
* Reported Oct 9 12:00 Noon — Oct 24 12:00 Noon, Labrador City, Weather by CustomWeather, © 2014

Note: Actual official high and low records may vary slightly from our data, if they occured in-between our weather recording intervals... More about our weather records

Advertising

Labrador City weather history for previous 24 hours

 ConditionsComfort  
Time TempWeatherWind HumidityBarometerVisibility
12:00 PM
Oct 24
41 °FPassing clouds.No wind57%30.10 "Hg15 mi
11:00 AM36 °FPassing clouds.No wind75%30.14 "Hg15 mi
10:00 AM30 °FPassing clouds.No wind86%30.14 "Hg15 mi
9:00 AM23 °FClear.No wind100%30.16 "Hg15 mi
8:00 AM19 °FClear.No wind100%30.17 "Hg15 mi
7:00 AM21 °FClear.No wind93%30.17 "Hg15 mi
6:00 AM21 °FClear.5 mph100%30.18 "Hg15 mi
5:00 AM21 °FClear.5 mph100%30.17 "Hg9 mi
4:00 AM23 °FClear.2 mph93%30.17 "Hg9 mi
3:00 AM23 °FClear.2 mph93%30.19 "Hg9 mi
2:00 AM27 °FClear.6 mph93%30.19 "Hg9 mi
1:00 AM30 °FClear.3 mph80%30.19 "Hg9 mi
12:00 AM34 °FClear.8 mph70%30.20 "Hg9 mi
11:00 PM
Oct 23
28 °FClear.7 mph80%30.22 "Hg9 mi
10:00 PM30 °FClear.No wind80%30.23 "Hg15 mi
9:00 PM30 °FClear.7 mph86%30.24 "Hg15 mi
8:00 PM32 °FSunny.6 mph64%30.24 "Hg15 mi
7:00 PM41 °FSunny.6 mph42%30.24 "Hg15 mi
6:00 PM46 °FSunny.3 mph34%30.23 "Hg15 mi
5:00 PM50 °FSunny.8 mph28%30.23 "Hg15 mi
4:00 PM50 °FSunny.12 mph25%30.24 "Hg15 mi
3:00 PM48 °FSunny.10 mph27%30.25 "Hg15 mi
2:00 PM48 °FSunny.9 mph27%30.28 "Hg15 mi
1:00 PM45 °FSunny.5 mph39%30.31 "Hg15 mi
Weather by CustomWeather, © 2014

See weather overviewHow to use our weather pages